Tracking 27112 objects as of 28-Mar-2023
HD Live streaming from Space Station
objects crossing your sky now

ANIK E2

Track ANIK E2 now!
ANIK E2 is classified as:


NORAD ID: 21222
Int'l Code: 1991-026A
Perigee: 36,077.7 km
Apogee: 36,157.1 km
Inclination: 13.1 °
Period: 1,452.7 minutes
Semi major axis: 42488 km
RCS: 12.1056 m2 (large)
Launch date: April 4, 1991
Source: Canada (CA)
Launch site: FRENCH GUIANA (FRGUI)

Inclined orbit; Anik is Inuit for "Little Brother"; 24 C-band, 16 Ku-band transponders.
Your satellite tracking list
Your tracking list is empty




NASA's NSSDC Master Catalog

Two Line Element Set (TLE):
1 21222U 91026A   23085.79440247 -.00000240  00000-0  00000-0 0  9999
2 21222  13.1485  20.6218 0009350  14.5714 193.6235  0.99128203105381
Source of the keplerian elements: AFSPC